Location: Fuglau
(48.6333°N, 15.5500°E)
Time: 17:15:37
(UTC+00:00)

X-37B - Visible Passes

Search period start: 25 February 2021 00:00
Search period end: 07 March 2021 00:00
Orbit: 383 x 391 km, 45.0° (Epoch: 10 February)

Date Brightness Start Highest point End Pass type
(mag) Time Alt. Az. Time Alt. Az. Time Alt. Az.
25 Feb 2.4 03:31:20 28° SE 03:31:20 28° SE 03:33:09 10° ESE visible
25 Feb 1.8 05:03:37 10° W 05:06:26 31° SSW 05:09:17 10° SE visible
26 Feb 1.3 04:07:50 36° SSW 04:08:12 38° S 04:11:10 10° ESE visible
27 Feb 3.3 03:12:04 17° ESE 03:12:04 17° ESE 03:12:57 10° ESE visible
27 Feb 2.2 04:44:21 14° WSW 04:46:10 23° SSW 04:48:46 10° SSE visible
28 Feb 2.0 03:48:39 27° S 03:48:39 27° S 03:50:49 10° SE visible
01 Mar 2.5 04:25:18 16° SW 04:25:51 16° SSW 04:27:55 10° SSE visible
02 Mar 3.2 03:29:45 13° SSE 03:29:45 13° SSE 03:30:17 10° SSE visible
